Charleville, Australia

5:08 AM AEST on July 26, 2017 (GMT +1000)
Charleville

Weather History for YBCV - January, 2014

Change the Weather History Date:

Tuesday, January 21, 2014

  Actual Average Record
Temperature  
Mean Temperature 94 °F -  
Max Temperature 110 °F 94 °F - ()
Min Temperature 77 °F 70 °F - ()
Cooling Degree Days 28    
Growing Degree Days 44 (Base 50)    
Moisture  
Dew Point 47 °F    
Average Humidity 18    
Maximum Humidity 39    
Minimum Humidity 4    
Precipitation  
Precipitation 0.00 in 0.08 in - ()
Sea Level Pressure  
Sea Level Pressure 29.67 in    
Wind  
Wind Speed 10 mph ()    
Max Wind Speed 21 mph    
Max Gust Speed 30 mph    
Visibility 7.9 miles    
Events      
T = Trace of Precipitation, MM = Missing Value Source: Averaged Metar Reports

Daily Weather History Graph

Daily Weather History Graph

Search for Another Location

Airport or City:

Trip Planner

Search our weather history database for the weather conditions in past years. The results will help you decide how hot, cold, wet, or windy it might be!

Date:

Astronomy

Jan. 21, 2014 Rise Set
Actual Time 5:40 AM AEST 7:11 PM AEST
Civil Twilight 5:15 AM AEST 7:36 PM AEST
Nautical Twilight 4:44 AM AEST 8:07 PM AEST
Astronomical Twilight 4:13 AM AEST 8:38 PM AEST
Moon 10:01 PM AEST (1/21) 9:44 AM AEST (1/21)
Length of Visible Light 14h 21m
Length of Day
13h 31m
Waning Gibbous, 80% of the Moon is Illuminated
Jan 21
Waning Gibbous
Jan 24
Last Quarter
Jan 31
New
Feb 7
First Quarter
Feb 15
Full

Hourly Weather History & Observations

Time (AEST) Temp. Heat Index Dew Point Humidity Pressure Visibility Wind Dir Wind Speed Gust Speed Precip Events Conditions
12:00 AM 93 °F - 45 °F 11% 29.62 in - North 12.7 mph - -  
12:00 AM 93.2 °F - 44.6 °F 19% 29.68 in 6.2 mi North 12.7 mph - N/A   Unknown
1:00 AM 90 °F - 47 °F 14% 29.62 in - North 6.9 mph - -  
1:00 AM 89.6 °F - 48.2 °F 24% 29.68 in 6.2 mi North 6.9 mph - N/A   Unknown
2:00 AM 87.8 °F - 48.2 °F 25% 29.65 in 6.2 mi North 8.1 mph - N/A   Unknown
3:00 AM 85 °F - 51 °F 20% 29.61 in - North 5.8 mph - -  
3:00 AM 84.2 °F - 50.0 °F 30% 29.65 in 6.2 mi North 5.8 mph - N/A   Unknown
4:00 AM 83 °F - 51 °F 22% 29.62 in - NNE 4.6 mph - -  
4:00 AM 82.4 °F - 50.0 °F 32% 29.68 in 6.2 mi NNE 4.6 mph - N/A   Unknown
5:00 AM 78.8 °F - 51.8 °F 39% 29.68 in 6.2 mi South 5.8 mph - N/A   Unknown
6:00 AM 80 °F - 51 °F 26% 29.67 in - NNE 6.9 mph - -  
6:00 AM 78.8 °F - 51.8 °F 39% 29.71 in 6.2 mi NNE 6.9 mph - N/A   Unknown
7:00 AM 86 °F - 49 °F 18% 29.68 in - North 12.7 mph - -  
7:00 AM 86.0 °F - 50.0 °F 29% 29.74 in - North 12.7 mph - N/A   Clear
8:00 AM 91.4 °F - 50.0 °F 24% 29.74 in - North 15.0 mph - N/A   Clear
9:00 AM 96 °F - 51 °F 13% 29.70 in 16 mi NNW 15.0 mph - -   Partly Cloudy
9:00 AM 95.0 °F - 50.0 °F 22% 29.74 in - NNW 15.0 mph - N/A   Clear
10:00 AM 100 °F - 49 °F 10% 29.68 in - NNW 15.0 mph - -  
10:00 AM 100.4 °F - 48.2 °F 17% 29.74 in - NNW 15.0 mph - N/A   Clear
11:00 AM 102.2 °F - 44.6 °F 14% 29.71 in - NNW 11.5 mph - N/A   Clear
12:00 PM 106 °F - 43 °F 6% 29.65 in 19 mi NW 16.1 mph - -   Partly Cloudy
12:00 PM 105.8 °F - 42.8 °F 12% 29.68 in - NW 16.1 mph - N/A   Clear
1:00 PM 108 °F - 41 °F 5% 29.63 in - West 10.4 mph - -  
1:00 PM 107.6 °F - 41.0 °F 10% 29.68 in - West 10.4 mph - N/A   Clear
2:00 PM 109.4 °F - 39.2 °F 9% 29.65 in - SW 9.2 mph - N/A   Clear
3:00 PM 110 °F - 36 °F 4% 29.58 in 19 mi WSW 10.4 mph - -   Mostly Cloudy
3:00 PM 109.4 °F - 35.6 °F 8% 29.62 in 6.2 mi WSW 10.4 mph - N/A   Mostly Cloudy
3:58 PM 107.6 °F - 41.0 °F 10% 29.62 in 6.2 mi NW 17.3 mph 29.9 mph N/A   Unknown
4:00 PM 106 °F - 42 °F 6% 29.56 in - WNW 18.4 mph - -  
4:00 PM 105.8 °F - 42.8 °F 12% 29.62 in 6.2 mi WNW 18.4 mph 29.9 mph N/A   Unknown
5:00 PM 105.8 °F - 44.6 °F 13% 29.62 in 6.2 mi North 11.5 mph - N/A   Unknown
5:28 PM 100.4 °F - 44.6 °F 15% 29.62 in 6.2 mi NNW 20.7 mph - N/A   Unknown
6:00 PM 100 °F - 47 °F 9% 29.60 in - North 10.4 mph - -  
6:00 PM 100.4 °F - 46.4 °F 16% 29.65 in 6.2 mi North 10.4 mph - N/A   Unknown
7:00 PM 98 °F - 47 °F 10% 29.63 in - NNW 10.4 mph - -  
7:00 PM 98.6 °F - 46.4 °F 17% 29.68 in 6.2 mi NNW 10.4 mph - N/A   Unknown
8:00 PM 95.0 °F - 51.8 °F 23% 29.68 in 6.2 mi NNW 4.6 mph - N/A   Unknown
9:00 PM 94 °F - 52 °F 15% 29.69 in - NE 11.5 mph - -  
9:00 PM 95.0 °F - 51.8 °F 23% 29.74 in 6.2 mi NE 11.5 mph - N/A   Unknown
10:00 PM 92 °F - 55 °F 19% 29.73 in - NNE 17.3 mph - -  
10:00 PM 91.4 °F 89.4 °F 55.4 °F 29% 29.77 in 6.2 mi NNE 17.3 mph - N/A   Unknown
11:00 PM 89.6 °F 87.7 °F 55.4 °F 31% 29.80 in 6.2 mi North 15.0 mph - N/A   Unknown